Regional Weather Roundup
Issued by NWS Cleveland, OH

Home | Current Version | Previous Version | Graphics & Text | Print | Product List | Glossary On
Versions: 1 2 3 4 5 6 7 8 9 10 11 12 13 14 15 16 17 18 19 20 21 22 23 24 25 26 27 28 29 30 31 32 33 34 35 36 37 38 39 40 41 42 43 44 45 46 47 48 49 50
443
ASUS41 KCLE 280110
RWRCLE
OHIO REGIONAL WEATHER ROUNDUP
NATIONAL WEATHER SERVICE CLEVELAND, OH
900 PM EDT MON MAR 27 2017

NOTE: "FAIR" INDICATES FEW OR NO CLOUDS BELOW 12,000 FEET WITH NO
SIGNIFICANT WEATHER AND/OR OBSTRUCTIONS TO VISIBILITY.

OHZ001>008-015>018-024>027-034-035-043-044-280200-
   NORTHWEST OHIO

CITY           SKY/WX    TMP DP  RH WIND       PRES   REMARKS
DEFIANCE       CLOUDY    54  49  83 CALM      29.88S
FINDLAY        CLOUDY    59  50  72 E3        29.87S
TOLEDO EXPRESS MOCLDY    55  49  80 CALM      29.89R
TOLEDO EXEC    CLOUDY    55  51  86 CALM      29.90R
LIMA           CLOUDY    56  53  90 NE5       29.87S
$$

OHZ009>014-019>023-028>033-038-089-280200-
   NORTHEAST OHIO

CITY           SKY/WX    TMP DP  RH WIND       PRES   REMARKS
CLE-HOPKINS    CLOUDY    54  46  74 NE5       29.93S
CLE-LAKEFRONT  CLOUDY    53  47  79 NE6       29.90S
CUY CO. ARPT   PTCLDY    54  48  82 CALM      29.92R
LORAIN-ELYRIA  CLOUDY    53  47  79 NE6       29.90S
ASHTABULA      CLOUDY    49  48  97 CALM      29.92S
AKRON-CANTON   MOCLDY    57  47  69 CALM      29.90S
WOOSTER        CLOUDY    56  51  84 CALM      29.90S
MANSFIELD      CLOUDY    58  51  78 CALM      29.90R
YOUNGSTOWN     CLOUDY    55  46  71 CALM      29.92R
$$

OHZ042-051>053-060>062-070>072-077>081-280200-
  SOUTHWEST OHIO

CITY           SKY/WX    TMP DP  RH WIND       PRES   REMARKS
CINC-COVINGTON LGT RAIN  60  56  86 S9G20     29.86R
CINC-LUNKEN    LGT RAIN  61  58  90 SW7       29.86R
HAMILTON       RAIN      58  58 100 E7        29.86S FOG
DAYTON         CLOUDY    59  51  75 E7        29.86F
WRIGHT-PAT AFB CLOUDY    60  55  82 NE5       29.85F
DAYTON GENERAL LGT RAIN  59  55  87 E5        29.85R
WILMINGTON     CLOUDY    61  55  81 E5        29.85F
$$

OHZ036-037-039>041-045>050-054>059-063>069-073>076-082>088-280200-
  CENTRAL AND SOUTHEAST OHIO

CITY           SKY/WX    TMP DP  RH WIND       PRES   REMARKS
COLUMBUS       CLOUDY    62  52  69 E5        29.86F
OSU AIRPORT    CLOUDY    58  53  84 NE3       29.87S
BOLTON FIELD   CLOUDY    60  52  74 CALM      29.87F
RICKENBACK AFB CLOUDY    59  53  80 E6        29.86F
NEWARK         CLOUDY    60  53  77 CALM      29.87S
MARION         CLOUDY    57  52  83 E3        29.89S
LANCASTER      MOCLDY    60  53  77 CALM      29.87F
ZANESVILLE     CLOUDY    61  50  67 CALM      29.88S
NEW PHILLY     NOT AVBL
$$




USA.gov is the U.S. government's official web portal to all federal, state and local government web resources and services.